| time (UTC) | temp C | wind direction | speed KPH | gust KPH | rain 1hr cm | rain 24hr cm | rain mn cm | humidity % | barometer mb |
| 20260507061011 | 11 | 338 | 1.6 | 14.5 | 0.00 | 1.78 | 0.00 | 86 | 1010.9 |
| 20260507060510 | 11 | 318 | 1.6 | 17.7 | 0.00 | 1.78 | 0.00 | 86 | 1010.9 |
| 20260507060010 | 11 | 327 | 1.6 | 17.7 | 0.00 | 1.78 | 0.00 | 86 | 1010.8 |
| 20260507055511 | 11 | 331 | 3.2 | 16.1 | 0.00 | 1.78 | 0.00 | 86 | 1010.6 |
| 20260507055009 | 11 | 308 | 4.8 | 19.3 | 0.00 | 1.78 | 0.00 | 87 | 1010.5 |
| 20260507054504 | 11 | 338 | 8.0 | 19.3 | 0.00 | 1.78 | 0.00 | 87 | 1010.5 |
| 20260507054006 | 11 | 344 | 9.7 | 19.3 | 0.00 | 1.78 | 0.00 | 87 | 1010.5 |
| 20260507053502 | 11 | 327 | 6.4 | 19.3 | 0.00 | 1.78 | 0.00 | 87 | 1010.5 |
| 20260507053004 | 11 | 339 | 1.6 | 14.5 | 0.00 | 1.78 | 0.00 | 87 | 1010.5 |
| 20260507052735 | 11 | 321 | 1.6 | 14.5 | 0.00 | 1.78 | 0.00 | 87 | 1010.6 |
| 20260507052003 | 11 | 341 | 1.6 | 14.5 | 0.00 | 1.78 | 0.00 | 87 | 1010.9 |
| 20260507051504 | 11 | 346 | 0.0 | 6.4 | 0.00 | 1.78 | 0.00 | 88 | 1010.9 |
| 20260507050958 | 11 | 321 | 1.6 | 16.1 | 0.00 | 1.78 | 0.00 | 88 | 1010.8 |
| 20260507050458 | 11 | 317 | 3.2 | 16.1 | 0.00 | 1.78 | 0.00 | 88 | 1010.6 |
| 20260507050000 | 11 | 342 | 4.8 | 19.3 | 0.00 | 1.78 | 0.00 | 88 | 1010.6 |
| 20260507045458 | 12 | 327 | 4.8 | 19.3 | 0.00 | 1.78 | 0.00 | 88 | 1010.8 |
| 20260507044958 | 12 | 316 | 4.8 | 16.1 | 0.00 | 1.78 | 0.00 | 88 | 1010.9 |
| 20260507044500 | 12 | 325 | 4.8 | 16.1 | 0.00 | 1.78 | 0.00 | 88 | 1011.0 |
| 20260507043954 | 12 | 310 | 3.2 | 16.1 | 0.00 | 1.78 | 0.00 | 88 | 1011.1 |
| 20260507043455 | 12 | 313 | 1.6 | 12.9 | 0.00 | 1.78 | 0.00 | 88 | 1010.9 |
| 20260507043225 | 12 | 9 | 1.6 | 12.9 | 0.00 | 1.78 | 0.00 | 88 | 1011.0 |
| 20260507042455 | 12 | 329 | 4.8 | 16.1 | 0.00 | 1.78 | 0.00 | 88 | 1010.9 |
| 20260507041954 | 12 | 344 | 6.4 | 16.1 | 0.00 | 1.78 | 0.00 | 87 | 1010.8 |
| 20260507041728 | 12 | 326 | 4.8 | 14.5 | 0.00 | 1.78 | 0.00 | 87 | 1010.8 |
| 20260507040950 | 12 | 345 | 3.2 | 12.9 | 0.00 | 1.78 | 0.00 | 87 | 1011.0 |
| 20260507040451 | 12 | 337 | 3.2 | 14.5 | 0.00 | 1.78 | 0.00 | 87 | 1010.9 |
| 20260507035948 | 12 | 298 | 1.6 | 14.5 | 0.00 | 1.78 | 1.78 | 87 | 1011.0 |
| 20260507035450 | 12 | 306 | 0.0 | 12.9 | 0.00 | 1.78 | 1.78 | 88 | 1010.9 |
| 20260507034949 | 12 | 298 | 0.0 | 0.0 | 0.00 | 1.78 | 1.78 | 87 | 1010.6 |
| 20260507034448 | 12 | 281 | 0.0 | 0.0 | 0.00 | 1.78 | 1.78 | 87 | 1011.0 |
| 20260507034221 | 12 | 337 | 0.0 | 0.0 | 0.00 | 1.78 | 1.78 | 88 | 1010.5 |
| 20260507033449 | 12 | 254 | 0.0 | 0.0 | 0.00 | 1.78 | 1.78 | 87 | 1010.9 |
| 20260507032948 | 12 | 311 | 0.0 | 0.0 | 0.00 | 1.78 | 1.78 | 87 | 1010.6 |
| 20260507032717 | 13 | 259 | 0.0 | 0.0 | 0.00 | 1.78 | 1.78 | 87 | 1010.2 |
| 20260507031943 | 13 | 348 | 1.6 | 12.9 | 0.00 | 1.78 | 1.78 | 87 | 1010.2 |
| 20260507031442 | 13 | 343 | 4.8 | 17.7 | 0.00 | 1.78 | 1.78 | 87 | 1010.3 |
| 20260507030939 | 13 | 334 | 8.0 | 17.7 | 0.00 | 1.78 | 1.78 | 87 | 1010.6 |
| 20260507030439 | 13 | 333 | 8.0 | 20.9 | 0.00 | 1.78 | 1.78 | 87 | 1010.5 |
| 20260507025937 | 13 | 324 | 4.8 | 20.9 | 0.00 | 1.78 | 1.78 | 87 | 1010.8 |
| 20260507025438 | 13 | 308 | 6.4 | 20.9 | 0.00 | 1.78 | 1.78 | 87 | 1010.4 |
| 20260507024937 | 13 | 323 | 9.7 | 20.9 | 0.00 | 1.78 | 1.78 | 87 | 1010.4 |
| 20260507024438 | 13 | 319 | 8.0 | 20.9 | 0.00 | 1.78 | 1.78 | 87 | 1010.6 |
| 20260507023932 | 13 | 320 | 8.0 | 20.9 | 0.00 | 1.78 | 1.78 | 87 | 1010.6 |
| 20260507023432 | 13 | 300 | 9.7 | 20.9 | 0.00 | 1.78 | 1.78 | 87 | 1010.5 |
| 20260507022932 | 13 | 291 | 11.3 | 20.9 | 0.00 | 1.78 | 1.78 | 87 | 1010.4 |
| 20260507022435 | 13 | 318 | 9.7 | 24.1 | 0.00 | 1.78 | 1.78 | 87 | 1010.2 |
| 20260507022431 | 13 | 304 | 11.3 | 19.3 | 0.00 | 1.78 | 1.78 | 87 | 1010.3 |
| 20260507021431 | 14 | 344 | 8.0 | 20.9 | 0.00 | 1.78 | 1.78 | 87 | 1010.1 |
| 20260507021157 | 14 | 346 | 9.7 | 30.6 | 0.00 | 1.78 | 1.78 | 87 | 1009.9 |
| 20260507020427 | 14 | 313 | 8.0 | 30.6 | 0.00 | 1.78 | 1.78 | 87 | 1010.1 |
| 20260507015927 | 14 | 329 | 9.7 | 24.1 | 0.00 | 1.78 | 1.78 | 86 | 1010.0 |
| 20260507015425 | 14 | 335 | 11.3 | 24.1 | 0.00 | 1.78 | 1.78 | 86 | 1010.2 |
| 20260507014925 | 14 | 304 | 9.7 | 20.9 | 0.00 | 1.78 | 1.78 | 87 | 1010.2 |
| 20260507014657 | 15 | 313 | 11.3 | 20.9 | 0.00 | 1.78 | 1.78 | 87 | 1010.0 |
| 20260507013922 | 15 | 304 | 11.3 | 19.3 | 0.00 | 1.78 | 1.78 | 87 | 1010.2 |
| 20260507013421 | 14 | 291 | 8.0 | 16.1 | 0.00 | 1.78 | 1.78 | 87 | 1010.3 |
| 20260507012920 | 15 | 310 | 6.4 | 12.9 | 0.00 | 1.78 | 1.78 | 88 | 1010.3 |
| 20260507012419 | 15 | 304 | 3.2 | 12.9 | 0.00 | 1.78 | 1.78 | 88 | 1010.3 |
| 20260507011919 | 15 | 313 | 1.6 | 12.9 | 0.00 | 1.78 | 1.78 | 88 | 1010.3 |
| 20260507011420 | 15 | 266 | 3.2 | 19.3 | 0.00 | 1.78 | 1.78 | 88 | 1010.2 |
| 20260507010913 | 15 | 305 | 4.8 | 19.3 | 0.00 | 1.78 | 1.78 | 88 | 1010.0 |
| 20260507010414 | 15 | 289 | 6.4 | 17.7 | 0.00 | 1.78 | 1.78 | 89 | 1009.9 |
| 20260507005912 | 15 | 294 | 6.4 | 14.5 | 0.00 | 1.78 | 1.78 | 89 | 1010.1 |
| 20260507005413 | 15 | 284 | 6.4 | 16.1 | 0.00 | 1.78 | 1.78 | 89 | 1009.9 |
| 20260507004913 | 15 | 292 | 6.4 | 16.1 | 0.00 | 1.78 | 1.78 | 90 | 1009.7 |
| 20260507004413 | 15 | 299 | 4.8 | 16.1 | 0.00 | 1.78 | 1.78 | 91 | 1009.8 |
| 20260507004138 | 15 | 286 | 4.8 | 12.9 | 0.00 | 1.78 | 1.78 | 91 | 1009.8 |
| 20260507003410 | 15 | 281 | 3.2 | 12.9 | 0.00 | 1.78 | 1.78 | 91 | 1009.6 |
| 20260507002908 | 15 | 282 | 1.6 | 12.9 | 0.00 | 1.78 | 1.78 | 90 | 1009.4 |
| 20260507002640 | 15 | 300 | 3.2 | 17.7 | 0.00 | 1.78 | 1.78 | 90 | 1009.3 |
| 20260507002138 | 15 | 293 | 3.2 | 17.7 | 0.00 | 1.78 | 1.78 | 91 | 1009.3 |
| 20260507001638 | 15 | 257 | 3.2 | 14.5 | 0.00 | 1.78 | 1.78 | 90 | 1009.3 |
| 20260507000900 | 15 | 286 | 3.2 | 17.7 | 0.00 | 1.78 | 1.78 | 90 | 1009.1 |
| 20260507000629 | 15 | 254 | 3.2 | 17.7 | 0.00 | 1.78 | 1.78 | 90 | 1008.9 |
| 20260506235857 | 15 | 257 | 4.8 | 17.7 | 0.00 | 1.78 | 1.78 | 91 | 1008.8 |
| 20260506235355 | 15 | 317 | 8.0 | 20.9 | 0.00 | 1.78 | 1.78 | 91 | 1008.7 |
| 20260506234855 | 15 | 273 | 9.7 | 20.9 | 0.00 | 1.78 | 1.78 | 92 | 1008.4 |
| 20260506234350 | 15 | 303 | 4.8 | 20.9 | 0.00 | 1.78 | 1.78 | 92 | 1008.3 |
| 20260506233851 | 15 | 292 | 4.8 | 17.7 | 0.00 | 1.78 | 1.78 | 93 | 1008.3 |
| 20260506233620 | 16 | 292 | 6.4 | 17.7 | 0.00 | 1.78 | 1.78 | 93 | 1008.0 |
| 20260506232849 | 16 | 286 | 4.8 | 16.1 | 0.00 | 1.78 | 1.78 | 93 | 1008.0 |
| 20260506232349 | 16 | 286 | 8.0 | 20.9 | 0.03 | 1.78 | 1.78 | 94 | 1008.0 |
| 20260506232121 | 16 | 306 | 11.3 | 25.7 | 0.36 | 1.78 | 1.78 | 94 | 1008.0 |
| 20260506231617 | 16 | 264 | 9.7 | 25.7 | 0.38 | 1.78 | 1.78 | 94 | 1008.0 |
| 20260506231114 | 16 | 295 | 9.7 | 25.7 | 0.48 | 1.78 | 1.78 | 94 | 1007.8 |
| 20260506230344 | 16 | 306 | 12.9 | 25.7 | 0.56 | 1.78 | 1.78 | 94 | 1007.9 |
| 20260506225845 | 17 | 280 | 9.7 | 24.1 | 0.61 | 1.78 | 1.78 | 95 | 1008.0 |
| 20260506225615 | 17 | 313 | 3.2 | 20.9 | 0.64 | 1.78 | 1.78 | 97 | 1007.8 |
| 20260506224842 | 17 | 321 | 0.0 | 0.0 | 0.64 | 1.78 | 1.78 | 97 | 1007.9 |
| 20260506224336 | 17 | 253 | 0.0 | 0.0 | 0.64 | 1.78 | 1.78 | 97 | 1007.9 |
| 20260506223837 | 17 | 266 | 0.0 | 0.0 | 0.64 | 1.78 | 1.78 | 97 | 1007.6 |
| 20260506223337 | 17 | 243 | 0.0 | 0.0 | 0.64 | 1.78 | 1.78 | 96 | 1007.7 |
| 20260506222837 | 17 | 241 | 1.6 | 14.5 | 0.64 | 1.78 | 1.78 | 95 | 1007.5 |
| 20260506222337 | 17 | 279 | 3.2 | 14.5 | 0.61 | 1.75 | 1.78 | 95 | 1007.5 |
| 20260506221837 | 18 | 248 | 4.8 | 14.5 | 0.28 | 1.42 | 1.42 | 94 | 1007.8 |
| 20260506221331 | 18 | 262 | 4.8 | 17.7 | 0.25 | 1.40 | 1.40 | 93 | 1007.4 |
| 20260506220830 | 18 | 193 | 6.4 | 17.7 | 0.15 | 1.30 | 1.30 | 92 | 1007.3 |
| 20260506220601 | 18 | 200 | 6.4 | 16.1 | 0.08 | 1.22 | 1.22 | 91 | 1007.3 |
| 20260506215832 | 18 | 184 | 4.8 | 16.1 | 0.03 | 1.17 | 1.17 | 90 | 1007.2 |
| 20260506215331 | 19 | 202 | 3.2 | 16.1 | 0.00 | 1.14 | 1.14 | 89 | 1007.0 |
| 20260506214831 | 19 | 211 | 4.8 | 14.5 | 0.00 | 1.14 | 1.14 | 89 | 1007.1 |
| 20260506214326 | 19 | 188 | 9.7 | 17.7 | 0.00 | 1.14 | 1.14 | 88 | 1007.1 |
| 20260506213827 | 19 | 198 | 9.7 | 17.7 | 0.00 | 1.14 | 1.14 | 87 | 1007.0 |
| 20260506213555 | 20 | 193 | 6.4 | 16.1 | 0.00 | 1.14 | 1.14 | 88 | 1007.0 |
| 20260506212825 | 19 | 216 | 3.2 | 16.1 | 0.00 | 1.14 | 1.14 | 88 | 1006.8 |
| 20260506212324 | 19 | 202 | 3.2 | 16.1 | 0.00 | 1.14 | 1.14 | 87 | 1006.8 |
| 20260506212055 | 19 | 251 | 6.4 | 16.1 | 0.00 | 1.14 | 1.14 | 88 | 1006.8 |
| 20260506211549 | 19 | 229 | 8.0 | 19.3 | 0.00 | 1.14 | 1.14 | 88 | 1006.7 |
| 20260506210819 | 19 | 242 | 4.8 | 19.3 | 0.00 | 1.14 | 1.14 | 88 | 1006.9 |
| 20260506210551 | 19 | 232 | 6.4 | 17.7 | 0.00 | 1.14 | 1.14 | 88 | 1006.9 |
| 20260506210050 | 19 | 215 | 8.0 | 19.3 | 0.00 | 1.14 | 1.14 | 89 | 1006.7 |
| 20260506205318 | 19 | 251 | 9.7 | 19.3 | 0.00 | 1.14 | 1.14 | 88 | 1006.7 |
| 20260506204818 | 19 | 203 | 9.7 | 19.3 | 0.00 | 1.14 | 1.14 | 89 | 1006.7 |
| 20260506204317 | 19 | 238 | 8.0 | 19.3 | 0.00 | 1.14 | 1.14 | 89 | 1006.8 |
| 20260506204044 | 19 | 200 | 8.0 | 17.7 | 0.00 | 1.14 | 1.14 | 89 | 1006.7 |
| 20260506203315 | 19 | 185 | 4.8 | 14.5 | 0.00 | 1.14 | 1.14 | 89 | 1006.7 |
| 20260506202313 | 19 | 202 | 1.6 | 14.5 | 0.00 | 1.14 | 1.14 | 90 | 1006.7 |
| 20260506201814 | 18 | 228 | 6.4 | 14.5 | 0.00 | 1.14 | 1.14 | 90 | 1006.7 |
| 20260506201308 | 18 | 190 | 6.4 | 16.1 | 0.00 | 1.14 | 1.14 | 90 | 1006.6 |
| 20260506201040 | 18 | 198 | 4.8 | 16.1 | 0.00 | 1.14 | 1.14 | 91 | 1006.8 |
| 20260506200309 | 18 | 197 | 4.8 | 17.7 | 0.00 | 1.14 | 1.14 | 91 | 1006.6 |
| 20260506195809 | 18 | 218 | 4.8 | 17.7 | 0.00 | 1.14 | 1.14 | 90 | 1006.8 |
| 20260506195538 | 18 | 205 | 3.2 | 14.5 | 0.00 | 1.14 | 1.14 | 92 | 1006.7 |
| 20260506194806 | 18 | 237 | 6.4 | 17.7 | 0.00 | 1.14 | 1.14 | 93 | 1006.8 |
| 20260506194304 | 18 | 206 | 9.7 | 19.3 | 0.00 | 1.14 | 1.14 | 92 | 1007.0 |
| 20260506193804 | 18 | 221 | 6.4 | 19.3 | 0.00 | 1.14 | 1.14 | 92 | 1007.0 |
| 20260506193304 | 18 | 239 | 3.2 | 14.5 | 0.00 | 1.14 | 1.14 | 93 | 1006.8 |
| 20260506192803 | 18 | 247 | 4.8 | 16.1 | 0.00 | 1.14 | 1.14 | 93 | 1006.9 |
| 20260506192300 | 18 | 232 | 4.8 | 16.1 | 0.00 | 1.14 | 1.14 | 94 | 1007.0 |
| 20260506191800 | 17 | 226 | 4.8 | 17.7 | 0.00 | 1.14 | 1.14 | 94 | 1007.0 |
| 20260506191254 | 17 | 213 | 8.0 | 17.7 | 0.00 | 1.14 | 1.14 | 93 | 1007.0 |
| 20260506190754 | 17 | 252 | 8.0 | 17.7 | 0.00 | 1.14 | 1.14 | 93 | 1006.9 |
| 20260506190254 | 17 | 196 | 6.4 | 17.7 | 0.00 | 1.14 | 1.14 | 94 | 1007.0 |
| 20260506185755 | 17 | 208 | 6.4 | 14.5 | 0.00 | 1.14 | 1.14 | 94 | 1007.0 |
| 20260506185525 | 17 | 222 | 6.4 | 14.5 | 0.00 | 1.14 | 1.14 | 95 | 1007.0 |
| 20260506184756 | 17 | 204 | 6.4 | 17.7 | 0.00 | 1.14 | 1.14 | 95 | 1007.2 |
| 20260506184520 | 17 | 217 | 4.8 | 17.7 | 0.00 | 1.14 | 1.14 | 96 | 1007.2 |
| 20260506183747 | 17 | 198 | 6.4 | 17.7 | 0.00 | 1.14 | 1.14 | 96 | 1007.2 |
| 20260506183248 | 16 | 203 | 8.0 | 17.7 | 0.00 | 1.14 | 1.14 | 96 | 1007.3 |
| 20260506182749 | 16 | 227 | 9.7 | 17.7 | 0.00 | 1.14 | 1.14 | 96 | 1007.3 |
| 20260506182248 | 16 | 230 | 8.0 | 17.7 | 0.00 | 1.14 | 1.14 | 96 | 1007.3 |
| 20260506181748 | 16 | 202 | 6.4 | 16.1 | 0.00 | 1.14 | 1.14 | 96 | 1007.3 |
| 20260506181518 | 16 | 196 | 6.4 | 16.1 | 0.00 | 1.14 | 1.14 | 97 | 1007.4 |
| 20260506180748 | 16 | 197 | 8.0 | 19.3 | 0.00 | 1.14 | 1.14 | 97 | 1007.5 |
| 20260506180249 | 16 | 182 | 8.0 | 19.3 | 0.00 | 1.14 | 1.14 | 97 | 1007.3 |
| 20260506180015 | 16 | 192 | 8.0 | 19.3 | 0.00 | 1.14 | 1.14 | 97 | 1007.3 |
| 20260506175508 | 16 | 219 | 9.7 | 19.3 | 0.00 | 1.14 | 1.14 | 97 | 1007.4 |
| 20260506174738 | 16 | 219 | 8.0 | 22.5 | 0.00 | 1.14 | 1.14 | 97 | 1007.5 |
| 20260506174514 | 16 | 232 | 11.3 | 24.1 | 0.00 | 1.14 | 1.14 | 97 | 1007.5 |
| 20260506174239 | 16 | 226 | 8.0 | 22.5 | 0.00 | 1.14 | 1.14 | 97 | 1007.5 |
| 20260506173238 | 16 | 220 | 8.0 | 24.1 | 0.00 | 1.14 | 1.14 | 97 | 1007.4 |
| 20260506172738 | 16 | 227 | 8.0 | 17.7 | 0.00 | 1.14 | 1.14 | 97 | 1007.5 |
| 20260506172233 | 16 | 173 | 12.9 | 24.1 | 0.00 | 1.14 | 1.14 | 97 | 1007.5 |
| 20260506171734 | 16 | 236 | 12.9 | 24.1 | 0.00 | 1.14 | 1.14 | 98 | 1007.4 |
| 20260506171234 | 16 | 248 | 9.7 | 33.8 | 0.00 | 1.14 | 1.14 | 98 | 1007.4 |
| 20260506170734 | 16 | 213 | 8.0 | 33.8 | 0.00 | 1.14 | 1.14 | 98 | 1007.5 |
| 20260506170234 | 16 | 214 | 6.4 | 19.3 | 0.00 | 1.14 | 1.14 | 98 | 1007.5 |
| 20260506165734 | 16 | 204 | 6.4 | 19.3 | 0.00 | 1.14 | 1.14 | 98 | 1007.5 |
| 20260506165235 | 16 | 193 | 3.2 | 12.9 | 0.00 | 1.14 | 1.14 | 98 | 1007.4 |
| 20260506165230 | 16 | 198 | 6.4 | 16.1 | 0.00 | 1.14 | 1.14 | 98 | 1007.6 |
| 20260506164230 | 16 | 186 | 3.2 | 12.9 | 0.00 | 1.14 | 1.14 | 98 | 1007.5 |
| 20260506163731 | 15 | 193 | 3.2 | 12.9 | 0.00 | 1.14 | 1.14 | 98 | 1007.5 |
| 20260506163231 | 15 | 198 | 4.8 | 17.7 | 0.00 | 1.14 | 1.14 | 98 | 1007.3 |
| 20260506162732 | 15 | 250 | 8.0 | 17.7 | 0.00 | 1.14 | 1.14 | 98 | 1007.5 |
| 20260506162223 | 15 | 176 | 8.0 | 17.7 | 0.00 | 1.14 | 1.14 | 98 | 1007.5 |
| 20260506161724 | 15 | 180 | 9.7 | 17.7 | 0.03 | 1.14 | 1.14 | 98 | 1007.4 |
| 20260506161228 | 15 | 190 | 9.7 | 19.3 | 0.08 | 1.14 | 1.14 | 99 | 1007.5 |
| 20260506161224 | 15 | 217 | 9.7 | 17.7 | 0.05 | 1.14 | 1.14 | 98 | 1007.6 |
| 20260506160222 | 15 | 203 | 11.3 | 19.3 | 0.10 | 1.14 | 1.14 | 98 | 1007.6 |
| 20260506155722 | 15 | 225 | 9.7 | 16.1 | 0.15 | 1.14 | 1.14 | 98 | 1007.6 |
| 20260506155457 | 15 | 151 | 11.3 | 20.9 | 0.23 | 1.14 | 1.14 | 98 | 1007.7 |
| 20260506155221 | 15 | 200 | 9.7 | 20.9 | 0.20 | 1.14 | 1.14 | 98 | 1007.7 |
| 20260506154218 | 15 | 158 | 12.9 | 25.7 | 0.28 | 1.14 | 1.14 | 98 | 1007.6 |
| 20260506153718 | 15 | 213 | 9.7 | 25.7 | 0.33 | 1.14 | 1.14 | 98 | 1007.6 |
| 20260506153447 | 15 | 194 | 4.8 | 19.3 | 0.38 | 1.14 | 1.14 | 98 | 1007.6 |
| 20260506152716 | 15 | 198 | 8.0 | 19.3 | 0.51 | 1.14 | 1.14 | 98 | 1007.4 |
| 20260506152207 | 15 | 184 | 6.4 | 16.1 | 0.56 | 1.14 | 1.14 | 98 | 1007.4 |
| 20260506151708 | 15 | 180 | 8.0 | 19.3 | 0.58 | 1.12 | 1.12 | 98 | 1007.5 |
| 20260506151206 | 15 | 174 | 8.0 | 19.3 | 0.56 | 1.09 | 1.09 | 98 | 1007.3 |
| 20260506150703 | 15 | 139 | 6.4 | 14.5 | 0.51 | 1.04 | 1.07 | 98 | 1007.5 |
| 20260506150203 | 15 | 146 | 8.0 | 16.1 | 0.53 | 1.04 | 1.04 | 98 | 1007.6 |
| 20260506145937 | 15 | 162 | 4.8 | 16.1 | 0.48 | 0.99 | 0.99 | 98 | 1007.8 |
| 20260506145159 | 15 | 167 | 4.8 | 19.3 | 0.48 | 0.94 | 0.94 | 98 | 1008.0 |
| 20260506144700 | 15 | 155 | 9.7 | 19.3 | 0.46 | 0.89 | 0.91 | 97 | 1008.2 |
| 20260506144157 | 15 | 198 | 11.3 | 19.3 | 0.48 | 0.86 | 0.86 | 97 | 1008.2 |
| 20260506143658 | 15 | 180 | 11.3 | 19.3 | 0.46 | 0.81 | 0.81 | 97 | 1008.4 |
| 20260506143159 | 15 | 169 | 8.0 | 19.3 | 0.43 | 0.76 | 0.76 | 97 | 1008.4 |
| 20260506142928 | 16 | 178 | 4.8 | 16.1 | 0.36 | 0.64 | 0.64 | 97 | 1008.4 |
| 20260506142153 | 16 | 212 | 4.8 | 12.9 | 0.33 | 0.56 | 0.58 | 97 | 1008.3 |
| 20260506141654 | 16 | 212 | 4.8 | 17.7 | 0.33 | 0.53 | 0.53 | 97 | 1008.2 |
| 20260506141153 | 16 | 189 | 3.2 | 17.7 | 0.33 | 0.53 | 0.53 | 97 | 1008.1 |
| 20260506140654 | 16 | 175 | 1.6 | 9.7 | 0.33 | 0.53 | 0.53 | 97 | 1007.9 |
| 20260506140152 | 16 | 217 | 4.8 | 11.3 | 0.30 | 0.51 | 0.51 | 97 | 1007.9 |
| 20260506135651 | 15 | 183 | 8.0 | 19.3 | 0.30 | 0.51 | 0.51 | 96 | 1007.8 |
| 20260506135416 | 15 | 184 | 6.4 | 19.3 | 0.25 | 0.46 | 0.48 | 96 | 1007.7 |
| 20260506134645 | 15 | 176 | 4.8 | 17.7 | 0.25 | 0.43 | 0.43 | 96 | 1007.8 |
| 20260506134417 | 15 | 161 | 6.4 | 17.7 | 0.23 | 0.38 | 0.38 | 95 | 1007.8 |
| 20260506133646 | 16 | 187 | 6.4 | 16.1 | 0.20 | 0.36 | 0.36 | 95 | 1008.1 |
| 20260506133146 | 16 | 159 | 6.4 | 16.1 | 0.18 | 0.33 | 0.33 | 95 | 1008.1 |
| 20260506132647 | 16 | 204 | 8.0 | 17.7 | 0.15 | 0.28 | 0.30 | 94 | 1008.2 |
| 20260506132144 | 16 | 198 | 9.7 | 17.7 | 0.13 | 0.23 | 0.25 | 94 | 1008.1 |
| 20260506131641 | 16 | 212 | 6.4 | 19.3 | 0.10 | 0.20 | 0.23 | 94 | 1008.1 |
| 20260506131141 | 16 | 194 | 6.4 | 19.3 | 0.13 | 0.20 | 0.20 | 94 | 1008.0 |
| 20260506130642 | 16 | 198 | 6.4 | 16.1 | 0.13 | 0.20 | 0.20 | 94 | 1008.2 |
| 20260506130140 | 16 | 180 | 6.4 | 16.1 | 0.15 | 0.20 | 0.20 | 93 | 1007.9 |
| 20260506125640 | 16 | 184 | 3.2 | 16.1 | 0.15 | 0.20 | 0.20 | 93 | 1008.0 |
| 20260506125134 | 16 | 179 | 3.2 | 16.1 | 0.18 | 0.20 | 0.20 | 93 | 1008.2 |
| 20260506124634 | 16 | 192 | 3.2 | 16.1 | 0.15 | 0.18 | 0.18 | 93 | 1008.1 |
| 20260506124136 | 16 | 190 | 6.4 | 17.7 | 0.15 | 0.15 | 0.15 | 92 | 1008.0 |
| 20260506123634 | 16 | 222 | 6.4 | 17.7 | 0.15 | 0.15 | 0.15 | 92 | 1008.1 |
| 20260506123134 | 16 | 206 | 6.4 | 17.7 | 0.15 | 0.15 | 0.15 | 92 | 1008.2 |
| 20260506122633 | 16 | 208 | 9.7 | 19.3 | 0.13 | 0.13 | 0.13 | 91 | 1008.3 |
| 20260506122128 | 16 | 197 | 9.7 | 19.3 | 0.10 | 0.10 | 0.13 | 91 | 1008.5 |
| 20260506121628 | 16 | 198 | 8.0 | 20.9 | 0.10 | 0.10 | 0.10 | 90 | 1008.4 |
| 20260506121128 | 16 | 230 | 4.8 | 20.9 | 0.08 | 0.08 | 0.08 | 90 | 1008.6 |
| 20260506120628 | 16 | 222 | 1.6 | 12.9 | 0.08 | 0.08 | 0.08 | 89 | 1008.6 |
| 20260506120127 | 16 | 207 | 1.6 | 16.1 | 0.05 | 0.05 | 0.08 | 88 | 1008.7 |
| 20260506115629 | 17 | 237 | 0.0 | 16.1 | 0.05 | 0.05 | 0.05 | 88 | 1008.6 |
| 20260506115126 | 17 | 225 | 0.0 | 8.0 | 0.03 | 0.03 | 0.03 | 86 | 1008.5 |
| 20260506114624 | 17 | 234 | 0.0 | 14.5 | 0.03 | 0.03 | 0.03 | 85 | 1008.3 |
| 20260506114354 | 17 | 221 | 1.6 | 14.5 | 0.00 | 0.00 | 0.03 | 83 | 1008.1 |
| 20260506113622 | 17 | 203 | 3.2 | 16.1 | 0.00 | 0.00 | 0.00 | 82 | 1008.0 |
| 20260506113126 | 18 | 190 | 4.8 | 16.1 | 0.00 | 0.00 | 0.00 | 80 | 1007.9 |
| 20260506113122 | 17 | 190 | 4.8 | 16.1 | 0.00 | 0.00 | 0.00 | 81 | 1007.9 |
| 20260506112115 | 18 | 181 | 6.4 | 16.1 | 0.00 | 0.00 | 0.00 | 79 | 1007.9 |
| 20260506111615 | 18 | 188 | 8.0 | 22.5 | 0.00 | 0.00 | 0.00 | 78 | 1007.9 |
| 20260506111117 | 18 | 214 | 8.0 | 22.5 | 0.00 | 0.00 | 0.00 | 77 | 1007.8 |
| 20260506110848 | 18 | 190 | 3.2 | 17.7 | 0.00 | 0.00 | 0.00 | 77 | 1007.8 |
| 20260506110115 | 18 | 215 | 1.6 | 9.7 | 0.00 | 0.00 | 0.00 | 77 | 1007.7 |
| 20260506105846 | 18 | 176 | 0.0 | 6.4 | 0.00 | 0.00 | 0.00 | 77 | 1007.6 |
| 20260506105110 | 18 | 221 | 0.0 | 0.0 | 0.00 | 0.00 | 0.00 | 76 | 1007.5 |
| 20260506104609 | 18 | 194 | 0.0 | 8.0 | 0.00 | 0.00 | 0.00 | 77 | 1007.6 |
| 20260506104108 | 18 | 169 | 0.0 | 8.0 | 0.00 | 0.00 | 0.00 | 76 | 1007.4 |
| 20260506103610 | 18 | 175 | 0.0 | 9.7 | 0.00 | 0.00 | 0.00 | 76 | 1007.4 |
| 20260506103110 | 18 | 192 | 1.6 | 16.1 | 0.00 | 0.00 | 0.00 | 75 | 1007.3 |
| 20260506102611 | 18 | 171 | 0.0 | 16.1 | 0.00 | 0.00 | 0.00 | 74 | 1007.4 |
| 20260506102107 | 18 | 190 | 0.0 | 9.7 | 0.00 | 0.00 | 0.00 | 74 | 1007.3 |
| 20260506101605 | 18 | 205 | 1.6 | 9.7 | 0.00 | 0.00 | 0.00 | 73 | 1007.2 |
| 20260506101110 | 19 | 184 | 1.6 | 11.3 | 0.00 | 0.00 | 0.00 | 71 | 1007.2 |
| 20260506101106 | 18 | 238 | 1.6 | 11.3 | 0.00 | 0.00 | 0.00 | 71 | 1007.2 |
| 20260506100104 | 19 | 187 | 3.2 | 16.1 | 0.00 | 0.00 | 0.00 | 71 | 1007.1 |
| 20260506095835 | 19 | 234 | 6.4 | 16.1 | 0.00 | 0.00 | 0.00 | 70 | 1007.0 |
| 20260506095057 | 19 | 187 | 6.4 | 17.7 | 0.00 | 0.00 | 0.00 | 69 | 1006.9 |
| 20260506094829 | 19 | 182 | 4.8 | 17.7 | 0.00 | 0.00 | 0.00 | 69 | 1006.9 |
| 20260506094059 | 19 | 178 | 4.8 | 17.7 | 0.00 | 0.00 | 0.00 | 69 | 1006.9 |
| 20260506093558 | 19 | 190 | 4.8 | 14.5 | 0.00 | 0.00 | 0.00 | 68 | 1007.0 |
| 20260506093058 | 19 | 190 | 6.4 | 17.7 | 0.00 | 0.00 | 0.00 | 68 | 1007.1 |
| 20260506092558 | 20 | 225 | 8.0 | 16.1 | 0.00 | 0.00 | 0.00 | 67 | 1007.1 |
| 20260506092051 | 20 | 200 | 11.3 | 22.5 | 0.00 | 0.00 | 0.00 | 67 | 1007.1 |
| 20260506091551 | 20 | 171 | 8.0 | 24.1 | 0.00 | 0.00 | 0.00 | 67 | 1007.0 |
| 20260506091052 | 20 | 183 | 6.4 | 24.1 | 0.00 | 0.00 | 0.00 | 67 | 1007.3 |
| 20260506090551 | 20 | 196 | 6.4 | 20.9 | 0.00 | 0.00 | 0.00 | 66 | 1007.3 |
| 20260506090052 | 20 | 207 | 6.4 | 27.4 | 0.00 | 0.00 | 0.00 | 66 | 1007.5 |
| 20260506085553 | 20 | 252 | 11.3 | 27.4 | 0.00 | 0.00 | 0.00 | 66 | 1007.3 |
| 20260506085320 | 20 | 172 | 9.7 | 24.1 | 0.00 | 0.00 | 0.00 | 66 | 1007.3 |
| 20260506084818 | 20 | 184 | 6.4 | 17.7 | 0.00 | 0.00 | 0.00 | 66 | 1007.3 |
| 20260506084044 | 20 | 184 | 6.4 | 19.3 | 0.00 | 0.00 | 0.00 | 66 | 1007.3 |
| 20260506083816 | 20 | 180 | 6.4 | 19.3 | 0.00 | 0.00 | 0.00 | 65 | 1007.2 |
| 20260506083318 | 20 | 231 | 4.8 | 16.1 | 0.00 | 0.00 | 0.00 | 65 | 1007.3 |
| 20260506082545 | 20 | 192 | 4.8 | 14.5 | 0.00 | 0.00 | 0.00 | 65 | 1007.3 |
| 20260506082042 | 20 | 195 | 9.7 | 22.5 | 0.00 | 0.00 | 0.00 | 64 | 1007.4 |
| 20260506081542 | 20 | 198 | 8.0 | 22.5 | 0.00 | 0.00 | 0.00 | 64 | 1007.3 |
| 20260506081041 | 20 | 183 | 4.8 | 16.1 | 0.00 | 0.00 | 0.00 | 64 | 1007.3 |
| 20260506080540 | 20 | 165 | 6.4 | 16.1 | 0.00 | 0.00 | 0.00 | 64 | 1007.4 |
| 20260506073032 | 20 | 173 | 12.9 | 27.4 | 0.00 | 0.00 | 0.00 | 61 | 1007.3 |
| 20260506072533 | 20 | 219 | 9.7 | 27.4 | 0.00 | 0.00 | 0.00 | 62 | 1007.5 |
| 20260506072027 | 21 | 195 | 6.4 | 20.9 | 0.00 | 0.00 | 0.00 | 61 | 1007.5 |
| 20260506071526 | 21 | 197 | 11.3 | 20.9 | 0.00 | 0.00 | 0.00 | 61 | 1007.5 |
| 20260506071027 | 21 | 195 | 9.7 | 22.5 | 0.00 | 0.00 | 0.00 | 61 | 1007.5 |
| 20260506070528 | 21 | 221 | 9.7 | 24.1 | 0.00 | 0.00 | 0.00 | 60 | 1007.5 |
| 20260506062022 | 21 | 200 | 14.5 | 30.6 | 0.00 | 0.00 | 0.00 | 58 | 1008.1 |
| 20260506061523 | 21 | 206 | 12.9 | 30.6 | 0.00 | 0.00 | 0.00 | 59 | 1008.1 |
| 20260506061024 | 21 | 208 | 9.7 | 25.7 | 0.00 | 0.00 | 0.00 | 58 | 1008.2 |